[[{"header":{"parameterUnit":"m.s-1","parameterCategory":1,"la1":30.2992,"la2":30.254,"lo1":-89.0895,"lo2":-89.0443,"dy":0.0025,"dx":0.0025,"nx":19,"ny":19,"refTime":"2026-05-13T03:00:00:Z","depth":0,"parameterNumber":2,"parameterNumberName":"U-component_of_WINDS"},"data":[0,0,0,0.8826,0.8829,0.8957,0.8957,0.9112,0.9113,0,0,0,0,0,0,0,0,0,0,0,0.8779,0.878,0.8826,0.8829,0.8956,0.8957,0.9112,0.9113,0,0,0,0,0,0,0,0,0,0,0,0.8779,0.878,0.8781,0.883,0.8956,0.8957,0.9112,0.9019,0,0,0,0,0,0,0,0,0,0,0.8897,0.8843,0.878,0.8781,0.883,0.8956,0.8957,0.9015,0.9025,0.905,0,0.9065,0,0.9091,0.9123,0.9123,0,0,0,0.8837,0.8835,0.8877,0.8781,0.8831,0.8956,0.8901,0.9021,0.9032,0.9063,0.9067,0.9073,0.9094,0.9124,0.9125,0.9232,0.9232,0,0,0.883,0.8798,0.8869,0.8884,0.8859,0.8897,0.8905,0.9028,0.9032,0.9068,0.9077,0.9096,0.9125,0.9126,0.9231,0.9232,0,0,0,0.8805,0.8793,0.8833,0.8877,0.8901,0.8901,0.891,0.9027,0.9042,0.9079,0.9098,0.9126,0.9127,0.9231,0.9232,0.9206,0,0,0,0.8801,0.8778,0.8829,0.8811,0.8898,0.8964,0.8905,0.9034,0.9049,0.9097,0.9126,0.9129,0.9231,0.9231,0.9206,0.9199,0,0,0,0.8774,0.8775,0.8789,0.8809,0.8862,0.8963,0.8986,0.9038,0.906,0.9124,0.9129,0.9231,0.9231,0.9206,0.92,0.9219,0,0,0,0.8738,0.8765,0.8788,0.8827,0.886,0.8945,0.8986,0.9051,0.9102,0.9126,0.9231,0.9232,0.9207,0.92,0.9219,0.9229,0.9229,0,0,0.8754,0.8765,0.8791,0.8816,0.8887,0.8928,0.8998,0.9077,0.9114,0.9192,0.9195,0.9206,0.92,0.9219,0.9244,0.9245,0,0,0,0.8785,0.8803,0.883,0.8875,0.8935,0.8988,0.9059,0.9089,0.9156,0.9146,0.9219,0.9216,0.9229,0.9235,0.9236,0.925,0.9233,0.9233,0.9233,0.8762,0.8807,0.8854,0.8915,0.896,0.9035,0.9077,0.9131,0.9164,0.9181,0.9204,0.9214,0.922,0.922,0.9235,0.9213,0.9213,0.9213,0.9213,0.8791,0.8824,0.8869,0.8929,0.8979,0.9033,0.9108,0.9131,0.919,0.9199,0.9213,0.9219,0.9219,0.9234,0.9211,0.9212,0.9212,0.9212,0.9212,0.878,0.8804,0.8839,0.8913,0.8967,0.903,0.9086,0.913,0.9172,0.9186,0.9217,0.9217,0.9225,0.9197,0.9197,0.9197,0.9197,0.9197,0.9197,0.8755,0.8796,0.8835,0.8903,0.8941,0.8996,0.9075,0.9115,0.9171,0.9199,0.92,0.9233,0.921,0.9203,0.9198,0.9198,0.9198,0.9198,0.9198,0.8767,0.8772,0.8832,0.887,0.8956,0.9009,0.9065,0.9143,0.9183,0.921,0.9242,0.9217,0.9233,0.9233,0.9228,0.923,0.923,0.923,0.923,0.8758,0.8771,0.8844,0.8902,0.8964,0.9023,0.9096,0.916,0.9227,0.9256,0.9263,0.926,0.9259,0.9276,0.9275,0.9271,0.9284,0.9284,0.9284,0.8769,0.879,0.8841,0.8904,0.8976,0.9039,0.911,0.918,0.9258,0.9287,0.9281,0.9278,0.9275,0.9271,0.9298,0.9296,0.929,0,0]},{"header":{"parameterUnit":"m.s-1","parameterCategory":1,"la1":30.2992,"la2":30.254,"lo1":-89.0895,"lo2":-89.0443,"dy":0.0025,"dx":0.0025,"nx":19,"ny":19,"refTime":"2026-05-13T03:00:00:Z","depth":0,"parameterNumber":3,"parameterNumberName":"V-component_of_WINDS"},"data":[0,0,0,-1.6642,-1.6639,-1.6506,-1.6505,-1.6311,-1.6309,0,0,0,0,0,0,0,0,0,0,0,-1.6668,-1.6667,-1.6642,-1.6639,-1.6506,-1.6505,-1.6311,-1.6309,0,0,0,0,0,0,0,0,0,0,0,-1.6669,-1.6667,-1.6665,-1.6638,-1.6506,-1.6505,-1.6312,-1.642,0,0,0,0,0,0,0,0,0,0,-1.6553,-1.6565,-1.6668,-1.6665,-1.6637,-1.6506,-1.6505,-1.6426,-1.6413,-1.6361,0,-1.6313,0,-1.6308,-1.6295,-1.6294,0,0,0,-1.6648,-1.6576,-1.6552,-1.6665,-1.6636,-1.6506,-1.6568,-1.6419,-1.6405,-1.6345,-1.6311,-1.6304,-1.6305,-1.6293,-1.6292,-1.5965,-1.5963,0,0,-1.6655,-1.6637,-1.6562,-1.6542,-1.6564,-1.6573,-1.6564,-1.6411,-1.6372,-1.631,-1.63,-1.6302,-1.6292,-1.629,-1.5967,-1.5965,0,0,0,-1.667,-1.6641,-1.6622,-1.655,-1.6528,-1.6568,-1.6559,-1.6379,-1.6374,-1.6298,-1.6299,-1.629,-1.6288,-1.5969,-1.5966,-1.585,0,0,0,-1.6675,-1.665,-1.6625,-1.6612,-1.653,-1.6452,-1.6529,-1.6385,-1.6368,-1.63,-1.629,-1.6286,-1.5971,-1.5968,-1.5858,-1.5797,0,0,0,-1.6681,-1.6651,-1.6628,-1.6612,-1.6554,-1.6455,-1.6442,-1.6381,-1.6368,-1.6294,-1.6285,-1.5973,-1.5968,-1.5865,-1.5808,-1.5703,0,0,0,-1.6683,-1.6527,-1.6626,-1.6453,-1.6555,-1.6386,-1.6443,-1.6317,-1.624,-1.6289,-1.5971,-1.5966,-1.5867,-1.5816,-1.571,-1.5608,-1.5565,0,0,-1.6475,-1.6501,-1.6401,-1.6486,-1.6294,-1.6408,-1.6199,-1.6144,-1.6153,-1.6027,-1.6019,-1.5856,-1.5809,-1.5705,-1.5338,-1.5303,0,0,0,-1.6329,-1.6256,-1.6209,-1.6136,-1.6092,-1.6049,-1.6029,-1.6009,-1.5903,-1.6086,-1.5792,-1.5765,-1.5704,-1.5656,-1.5626,-1.5574,-1.5945,-1.5945,-1.5946,-1.6005,-1.6028,-1.5862,-1.5868,-1.5796,-1.5779,-1.5722,-1.5691,-1.5734,-1.5664,-1.5625,-1.54,-1.5343,-1.5321,-1.5266,-1.5577,-1.5576,-1.5576,-1.5576,-1.5701,-1.5599,-1.5662,-1.5523,-1.5547,-1.5431,-1.5408,-1.5442,-1.5335,-1.5431,-1.5379,-1.5477,-1.5283,-1.5235,-1.5567,-1.5569,-1.557,-1.557,-1.5571,-1.5487,-1.5442,-1.5423,-1.532,-1.5237,-1.525,-1.5144,-1.5171,-1.5195,-1.5143,-1.5103,-1.5105,-1.5106,-1.5124,-1.5123,-1.5122,-1.5121,-1.5121,-1.512,-1.5271,-1.5254,-1.5162,-1.5105,-1.5061,-1.5007,-1.499,-1.4947,-1.4906,-1.4933,-1.4933,-1.4979,-1.5262,-1.5329,-1.5108,-1.511,-1.5112,-1.5113,-1.5114,-1.4944,-1.5023,-1.4882,-1.4838,-1.4773,-1.4688,-1.4726,-1.4636,-1.4605,-1.4552,-1.4612,-1.4818,-1.4845,-1.4868,-1.4924,-1.4611,-1.4611,-1.4611,-1.4611,-1.476,-1.4779,-1.464,-1.4569,-1.4502,-1.4522,-1.4359,-1.4345,-1.4342,-1.4324,-1.4374,-1.4453,-1.4476,-1.4488,-1.452,-1.4572,-1.4176,-1.4176,-1.4175,-1.4558,-1.4572,-1.4428,-1.4429,-1.4381,-1.4338,-1.4185,-1.4098,-1.4112,-1.4158,-1.4309,-1.4327,-1.4454,-1.4495,-1.4538,-1.4586,-1.4683,0,0]}]]